Location: Great Falls
(47.5000°N, 111.3000°W)
Time: 13:12:38
(UTC-07:00)

Envisat - Visible Passes

Search period start: 17 January 2018 00:00
Search period end: 27 January 2018 00:00
Orbit: 764 x 766 km, 98.2° (Epoch: 17 January)

Date Brightness Start Highest point End Pass type
(mag) Time Alt. Az. Time Alt. Az. Time Alt. Az.
17 Jan 6.3 07:19:45 10° ENE 07:21:03 11° E 07:22:22 10° E visible
17 Jan 4.2 18:40:44 22° NE 18:40:44 22° NE 18:43:54 10° N visible
17 Jan 4.4 20:20:56 31° NW 20:20:56 31° NW 20:23:42 10° NNW visible
18 Jan 4.7 18:03:22 12° ENE 18:03:49 12° NE 18:05:39 10° NNE visible
18 Jan 3.6 19:43:33 43° N 19:43:33 43° N 19:47:00 10° N visible
18 Jan 5.8 21:23:43 13° WNW 21:23:43 13° WNW 21:24:45 10° NW visible
19 Jan 3.7 19:06:09 33° NE 19:06:09 33° NE 19:09:58 10° N visible
19 Jan 4.9 20:46:20 26° NW 20:46:20 26° NW 20:49:02 10° NNW visible
20 Jan 4.3 18:28:46 19° ENE 18:29:02 19° ENE 18:32:29 10° NNE visible
20 Jan 3.7 20:08:57 47° NNW 20:08:57 47° NNW 20:12:37 10° NNW visible
21 Jan 3.2 19:31:32 52° NE 19:31:32 52° NE 19:35:50 10° N visible
21 Jan 5.4 21:11:43 19° WNW 21:11:43 19° WNW 21:14:02 10° NW visible
22 Jan 3.8 18:54:08 29° ENE 18:54:21 29° ENE 18:58:41 10° N visible
22 Jan 4.3 20:34:18 37° WNW 20:34:18 37° WNW 20:38:03 10° NNW visible
23 Jan 4.5 18:16:42 14° ENE 18:18:03 16° ENE 18:20:58 10° NNE visible
23 Jan 3.0 19:56:53 73° NNW 19:56:53 73° NNW 20:01:30 10° NNW visible
23 Jan 5.9 21:37:04 12° WNW 21:37:04 12° WNW 21:38:14 10° WNW visible
24 Jan 3.2 19:19:27 45° E 19:19:45 46° ENE 19:24:36 10° N visible
24 Jan 5.0 20:59:38 25° W 20:59:38 25° W 21:03:13 10° NW visible
25 Jan 6.2 07:22:30 10° ENE 07:24:28 12° E 07:26:24 10° ESE visible
25 Jan 4.0 18:42:01 22° E 18:43:19 24° ENE 18:47:20 10° N visible
25 Jan 3.6 20:22:12 53° W 20:22:12 53° W 20:27:00 10° NNW visible
26 Jan 4.7 18:04:52 10° E 18:07:05 13° NE 18:09:18 10° NNE visible
26 Jan 2.8 19:44:46 69° ESE 19:45:15 76° ENE 19:50:21 10° N visible
26 Jan 5.6 21:24:56 16° W 21:24:56 16° W 21:27:52 10° NW visible
